TimeCDT,TemperatureF,Dew PointF,Humidity,Sea Level PressureIn,VisibilityMPH,Wind Direction,Wind SpeedMPH,Gust SpeedMPH,PrecipitationIn,Events,Conditions,WindDirDegrees,DateUTC
12:00 AM,21.2,-9999,N/A,29.88,9.0,North,9.2,-,N/A,,Overcast,350,2012-10-17 05:00:00
12:38 AM,21.2,-9999,N/A,29.86,9.0,North,10.4,-,N/A,,Overcast,350,2012-10-17 05:38:00
1:00 AM,22,,,29.88,9,North,11.5,,,,Overcast,350,2012-10-17 06:00:00
1:28 AM,21.2,-9999,N/A,29.85,9.0,North,10.4,-,N/A,,Overcast,350,2012-10-17 06:28:00
1:38 AM,21.2,-9999,N/A,29.85,9.0,North,11.5,-,N/A,,Overcast,350,2012-10-17 06:38:00
2:00 AM,21.2,-9999,N/A,29.88,9.0,NNW,11.5,-,N/A,,Overcast,340,2012-10-17 07:00:00
2:02 AM,21.2,-9999,N/A,29.86,9.0,North,11.5,-,N/A,,Overcast,350,2012-10-17 07:02:00
2:12 AM,21.2,-9999,N/A,29.86,9.0,North,11.5,-,N/A,,Overcast,360,2012-10-17 07:12:00
2:18 AM,21.2,-9999,N/A,29.86,9.0,North,10.4,-,N/A,,Overcast,350,2012-10-17 07:18:00
2:55 AM,21.2,-9999,N/A,29.86,9.0,North,9.2,-,N/A,,Overcast,350,2012-10-17 07:55:00
3:00 AM,23.0,-9999,N/A,29.88,9.0,North,9.2,-,N/A,,Overcast,350,2012-10-17 08:00:00
3:19 AM,23.0,-9999,N/A,29.86,9.0,NNW,9.2,-,N/A,,Overcast,340,2012-10-17 08:19:00
3:28 AM,23.0,-9999,N/A,29.86,9.0,NNW,9.2,-,N/A,,Overcast,340,2012-10-17 08:28:00
3:39 AM,23.0,-9999,N/A,29.86,9.0,NNW,8.1,-,N/A,,Overcast,340,2012-10-17 08:39:00
3:53 AM,23.0,-9999,N/A,29.86,9.0,NNW,10.4,-,N/A,,Overcast,340,2012-10-17 08:53:00
4:00 AM,22,,,29.88,9,NNW,9.2,,,,Overcast,340,2012-10-17 09:00:00
4:00 AM,23.0,-9999,N/A,29.88,9.0,NNW,9.2,-,N/A,,Overcast,340,2012-10-17 09:00:00
4:26 AM,23.0,-9999,N/A,29.87,9.0,NNW,6.9,-,N/A,,Overcast,330,2012-10-17 09:26:00
4:34 AM,23.0,-9999,N/A,29.87,9.0,NNW,6.9,-,N/A,,Overcast,330,2012-10-17 09:34:00
5:00 AM,23.0,-9999,N/A,29.88,9.0,NNW,5.8,-,N/A,,Overcast,340,2012-10-17 10:00:00
5:33 AM,23.0,-9999,N/A,29.86,9.0,NNW,6.9,-,N/A,,Mostly Cloudy,330,2012-10-17 10:33:00
6:00 AM,23.0,-9999,N/A,29.88,9.0,NNW,6.9,-,N/A,,Overcast,330,2012-10-17 11:00:00
7:00 AM,23,,,29.88,9,NW,6.9,,,,Overcast,310,2012-10-17 12:00:00
7:00 AM,23.0,-9999,N/A,29.88,9.0,WNW,6.9,-,N/A,,Overcast,300,2012-10-17 12:00:00
8:00 AM,23.0,-9999,N/A,29.87,9.0,NW,8.1,-,N/A,,Overcast,310,2012-10-17 13:00:00
9:00 AM,23.0,-9999,N/A,29.88,9.0,NW,8.1,-,N/A,,Overcast,320,2012-10-17 14:00:00
10:00 AM,24,,,29.88,9,NW,10.4,,,,Overcast,310,2012-10-17 15:00:00
10:00 AM,24.8,-9999,N/A,29.88,9.0,NW,9.2,-,N/A,,Overcast,310,2012-10-17 15:00:00
11:00 AM,24.8,-9999,N/A,29.88,9.0,NW,9.2,-,N/A,,Overcast,310,2012-10-17 16:00:00
12:00 PM,24.8,-9999,N/A,29.88,9.0,WNW,9.2,-,N/A,,Overcast,300,2012-10-17 17:00:00
1:00 PM,25,,,29.88,9,NW,6.9,,,,Overcast,310,2012-10-17 18:00:00
1:00 PM,24.8,-9999,N/A,29.88,9.0,NW,6.9,-,N/A,,Overcast,310,2012-10-17 18:00:00
2:00 PM,24.8,-9999,N/A,29.88,9.0,WNW,9.2,-,N/A,,Overcast,300,2012-10-17 19:00:00
3:00 PM,24.8,-9999,N/A,29.89,9.0,West,9.2,-,N/A,,Overcast,280,2012-10-17 20:00:00
4:00 PM,24,,,29.90,9,West,11.5,,,,Overcast,280,2012-10-17 21:00:00
4:00 PM,24.8,-9999,N/A,29.90,9.0,WNW,12.7,-,N/A,,Overcast,290,2012-10-17 21:00:00
4:47 PM,23.0,-9999,N/A,29.88,9.0,WNW,13.8,-,N/A,,Overcast,290,2012-10-17 21:47:00
4:56 PM,23.0,-9999,N/A,29.88,9.0,WNW,12.7,-,N/A,,Overcast,290,2012-10-17 21:56:00
5:00 PM,23.0,-9999,N/A,29.90,9.0,WNW,13.8,-,N/A,,Overcast,290,2012-10-17 22:00:00
5:18 PM,23.0,-9999,N/A,29.88,9.0,WNW,11.5,-,N/A,,Overcast,290,2012-10-17 22:18:00
5:34 PM,23.0,-9999,N/A,29.88,9.0,WNW,12.7,-,N/A,,Overcast,300,2012-10-17 22:34:00
5:46 PM,23.0,-9999,N/A,29.89,9.0,WNW,13.8,-,N/A,,Overcast,300,2012-10-17 22:46:00
6:00 PM,23.0,-9999,N/A,29.91,9.0,WNW,13.8,-,N/A,,Overcast,300,2012-10-17 23:00:00
6:38 PM,24.8,-9999,N/A,29.89,9.0,WNW,16.1,-,N/A,,Overcast,300,2012-10-17 23:38:00
6:49 PM,24.8,-9999,N/A,29.89,9.0,WNW,15.0,-,N/A,,Overcast,300,2012-10-17 23:49:00
6:59 PM,24.8,-9999,N/A,29.89,9.0,WNW,15.0,-,N/A,,Overcast,300,2012-10-17 23:59:00
7:00 PM,24,,,29.91,9,WNW,13.8,,,,Overcast,300,2012-10-18 00:00:00
7:00 PM,24.8,-9999,N/A,29.91,9.0,WNW,12.7,-,N/A,,Overcast,290,2012-10-18 00:00:00
8:00 PM,24.8,-9999,N/A,29.91,9.0,WNW,16.1,-,N/A,,Overcast,290,2012-10-18 01:00:00
9:00 PM,24.8,-9999,N/A,29.91,9.0,WNW,13.8,-,N/A,,Overcast,290,2012-10-18 02:00:00
10:00 PM,24,,,29.92,9,WNW,15.0,,,,Overcast,300,2012-10-18 03:00:00
10:00 PM,24.8,-9999,N/A,29.92,9.0,WNW,15.0,-,N/A,,Overcast,290,2012-10-18 03:00:00
11:00 PM,24.8,-9999,N/A,29.91,9.0,WNW,16.1,-,N/A,,Overcast,290,2012-10-18 04:00:00